Regional Weather Roundup
Issued by NWS

Home | Current Version | Previous Version | Graphics & Text | Print | Product List | Glossary Off
Versions: 1 2 3 4 5 6 7 8 9 10 11 12 13 14 15 16 17 18 19 20 21 22 23 24 25 26 27 28 29 30 31 32 33 34 35 36 37 38 39 40 41 42 43 44 45 46 47 48 49 50

000
ASUS44 KMEG 261810
RWRTN
TENNESSEE HOURLY STATE WEATHER ROUNDUP
NATIONAL WEATHER SERVICE MEMPHIS TN
100 PM CDT TUE SEP 26 2017

TNZ002-004-019-021-049-052-054-088>092-261900-
WEST TENNESSEE

CITY           SKY/WX    TMP DP  RH WIND       PRES   REMARKS
MEMPHIS INTL   MOSUNNY   88  67  49 SE5       29.98F HX  91
NWS MEMPHIS      N/A     87 N/A N/A MISG        N/A
JACKSON        SUNNY     87  66  49 VRB3      29.99F
SOMERVILLE     MOSUNNY   86  68  54 NW5       29.98F
COVINGTON      MOSUNNY   86  66  51 NW5       29.98F
BOLIVAR        PTSUNNY   86  66  51 NE5       29.98F
PARIS          SUNNY     86  66  51 CALM      29.98F
HUNTINGDON     MOSUNNY   88  68  51 CALM      29.98F HX  91
LEXINGTON      MOSUNNY   88  66  48 VRB3      29.98F HX  90
SELMER         SUNNY     86  64  48 CALM      29.99F
SAVANNAH       MOSUNNY   86  66  51 N5        29.98F HAZE
$$

TNZ008-025-027-028-033-062-065-066-261900-
NORTH MIDDLE TENNESSEE

CITY           SKY/WX    TMP DP  RH WIND       PRES   REMARKS
NASHVILLE      MOSUNNY   89  64  43 VRB6      30.00F HX  90
PORTLAND       SUNNY     86  64  48 CALM      30.00F
CLARKSVILLE    MOSUNNY   86  62  44 NE3       29.99F
SMYRNA         SUNNY     84  64  50 N5        30.02F
COOKEVILLE     MOSUNNY   84  64  51 VRB3      30.01F
GALLATIN       SUNNY     88  64  45 VRB5      30.02F
CROSSVILLE     MOSUNNY   79  59  50 NW7       30.06F
$$

TNZ061-075-076-078-094-096-097-261900-
SOUTH MIDDLE TENNESSEE

CITY           SKY/WX    TMP DP  RH WIND       PRES   REMARKS
FAYETTEVILLE   MOSUNNY   84  64  51 CALM      30.00F
COLUMBIA       MOSUNNY   86  66  51 CALM      29.97F
SHELBYVILLE    SUNNY     86  64  48 CALM      30.00F
$$

TNZ017-018-042-046-047-261900-
NORTHEAST TENNESSEE

CITY           SKY/WX    TMP DP  RH WIND       PRES   REMARKS
TRI CITIES     MOSUNNY   86  62  44 NW5       30.01F
ELIZABETHTON   SUNNY     84  55  37 VRB7      30.01F
$$

TNZ012-013-036-069-073-074-261900-
CENTRAL EAST TENNESSEE

CITY           SKY/WX    TMP DP  RH WIND       PRES   REMARKS
KNOXVILLE      MOSUNNY   83  65  54 VRB6      30.00F
OAK RIDGE      SUNNY     84  63  49 CALM      30.01F
DOWNTOWN KNOXV SUNNY     86  63  45 CALM      29.99F
MORRISTOWN     MOSUNNY   84  63  48 CALM      30.00F
JACKSBORO      SUNNY     84  63  48 CALM      30.04F
$$

TNZ083-085-099-261900-
SOUTHEAST TENNESSEE

CITY           SKY/WX    TMP DP  RH WIND       PRES   REMARKS
CHATTANOOGA    MOSUNNY   86  61  42 MISG      30.00F
DAYTON         CLEAR     86  68  54 W6        29.98F
$$

SKY/WX REPORTED AS FAIR MEANS FEW OR NO CLOUDS BELOW
12 THOUSAND FEET.





USA.gov is the U.S. government's official web portal to all federal, state and local government web resources and services.